Time,TemperatureF,DewpointF,PressureIn,WindDirection,WindDirectionDegrees,WindSpeedMPH,WindSpeedGustMPH,Humidity,HourlyPrecipIn,Conditions,Clouds,dailyrainin,SoftwareType,DateUTC
2013-01-11 00:03:00,24.1,22.2,29.94,North,0,0.0,3.6,92,0.00,,,0.00,WUHU216HW,2013-01-11 09:03:00,
2013-01-11 00:08:00,24.1,22.2,29.93,East,90,3.6,3.8,92,0.00,,,0.00,WUHU216HW,2013-01-11 09:08:00,
2013-01-11 00:13:00,24.1,22.2,29.93,North,0,0.9,3.8,92,0.00,,,0.00,WUHU216HW,2013-01-11 09:13:00,
2013-01-11 00:18:00,24.1,22.2,29.93,North,0,0.4,4.3,92,0.00,,,0.00,WUHU216HW,2013-01-11 09:18:00,
2013-01-11 00:23:00,24.1,22.2,29.93,NNE,23,3.8,4.5,92,0.00,,,0.00,WUHU216HW,2013-01-11 09:23:00,
2013-01-11 00:28:00,24.1,22.2,29.93,North,0,0.0,4.9,92,0.00,,,0.00,WUHU216HW,2013-01-11 09:28:00,
2013-01-11 00:33:00,24.1,22.2,29.93,North,0,2.7,4.9,92,0.00,,,0.00,WUHU216HW,2013-01-11 09:33:00,
2013-01-11 00:38:00,24.1,22.2,29.92,North,0,0.9,3.8,92,0.00,,,0.00,WUHU216HW,2013-01-11 09:38:00,
2013-01-11 00:43:00,24.1,22.2,29.92,NE,45,2.5,4.9,92,0.00,,,0.00,WUHU216HW,2013-01-11 09:43:00,
2013-01-11 00:48:00,24.1,22.2,29.92,North,0,2.7,4.9,92,0.00,,,0.00,WUHU216HW,2013-01-11 09:48:00,
2013-01-11 00:53:00,24.1,22.2,29.92,NE,45,1.1,4.0,92,0.00,,,0.00,WUHU216HW,2013-01-11 09:53:00,
2013-01-11 00:58:00,24.1,22.2,29.92,North,0,0.7,3.8,92,0.00,,,0.00,WUHU216HW,2013-01-11 09:58:00,
2013-01-11 01:03:00,24.1,22.2,29.91,North,0,1.6,4.3,92,0.00,,,0.00,WUHU216HW,2013-01-11 10:03:00,
2013-01-11 01:08:00,24.1,22.2,29.91,NE,45,1.6,4.3,92,0.00,,,0.00,WUHU216HW,2013-01-11 10:08:00,
2013-01-11 01:13:00,24.1,22.2,29.91,East,90,1.8,3.8,92,0.00,,,0.00,WUHU216HW,2013-01-11 10:13:00,
2013-01-11 01:18:00,24.1,22.2,29.91,North,0,1.1,3.8,92,0.00,,,0.00,WUHU216HW,2013-01-11 10:18:00,
2013-01-11 01:23:00,23.9,22.0,29.90,NNE,23,1.1,5.4,92,0.00,,,0.00,WUHU216HW,2013-01-11 10:23:00,
2013-01-11 01:28:00,23.9,22.0,29.90,North,0,0.2,5.4,92,0.00,,,0.00,WUHU216HW,2013-01-11 10:28:00,
2013-01-11 01:33:00,23.9,22.0,29.90,North,0,0.7,4.7,92,0.00,,,0.00,WUHU216HW,2013-01-11 10:33:00,
2013-01-11 01:38:00,24.1,22.2,29.90,North,0,0.7,4.7,92,0.00,,,0.00,WUHU216HW,2013-01-11 10:38:00,
2013-01-11 01:43:00,24.1,22.2,29.90,North,0,4.7,4.7,92,0.00,,,0.00,WUHU216HW,2013-01-11 10:43:00,
2013-01-11 01:48:00,24.1,22.2,29.90,NNW,338,3.1,5.1,92,0.00,,,0.00,WUHU216HW,2013-01-11 10:48:00,
2013-01-11 01:53:00,24.1,22.2,29.90,North,0,3.8,6.5,92,0.00,,,0.00,WUHU216HW,2013-01-11 10:53:00,
2013-01-11 01:58:00,24.1,22.2,29.90,North,0,0.7,6.5,92,0.00,,,0.00,WUHU216HW,2013-01-11 10:58:00,
2013-01-11 02:03:00,24.1,22.2,29.90,NNW,338,1.3,6.3,92,0.00,,,0.00,WUHU216HW,2013-01-11 11:03:00,
2013-01-11 02:08:00,24.1,22.2,29.90,North,0,4.3,6.3,92,0.00,,,0.00,WUHU216HW,2013-01-11 11:08:00,
2013-01-11 02:13:00,24.1,22.2,29.89,North,0,0.4,5.6,92,0.00,,,0.00,WUHU216HW,2013-01-11 11:13:00,
2013-01-11 02:18:00,24.1,22.2,29.90,NNE,23,1.1,5.4,92,0.00,,,0.00,WUHU216HW,2013-01-11 11:18:00,
2013-01-11 02:23:00,24.1,22.2,29.89,North,0,0.4,4.7,92,0.00,,,0.00,WUHU216HW,2013-01-11 11:23:00,
2013-01-11 02:28:00,24.1,22.2,29.90,North,0,0.9,4.7,92,0.00,,,0.00,WUHU216HW,2013-01-11 11:28:00,
2013-01-11 02:33:00,24.1,22.2,29.91,NNE,23,1.6,3.8,92,0.00,,,0.00,WUHU216HW,2013-01-11 11:33:00,
2013-01-11 02:38:00,24.1,22.2,29.90,North,0,1.8,4.5,92,0.00,,,0.00,WUHU216HW,2013-01-11 11:38:00,
2013-01-11 02:43:00,24.1,22.2,29.91,NNW,338,0.4,4.5,92,0.00,,,0.00,WUHU216HW,2013-01-11 11:43:00,
2013-01-11 02:48:00,24.1,22.2,29.91,North,0,0.4,3.8,92,0.00,,,0.00,WUHU216HW,2013-01-11 11:48:00,
2013-01-11 02:53:00,24.3,22.3,29.91,North,0,0.0,1.1,92,0.00,,,0.00,WUHU216HW,2013-01-11 11:53:00,
2013-01-11 02:58:00,24.3,22.3,29.91,North,0,0.4,2.9,92,0.00,,,0.00,WUHU216HW,2013-01-11 11:58:00,
2013-01-11 03:03:00,24.3,22.3,29.91,NNE,23,1.1,4.7,92,0.00,,,0.00,WUHU216HW,2013-01-11 12:03:00,
2013-01-11 03:08:00,24.3,22.3,29.91,North,0,1.8,4.7,92,0.00,,,0.00,WUHU216HW,2013-01-11 12:08:00,
2013-01-11 03:13:00,24.3,22.3,29.91,North,0,0.4,4.0,92,0.00,,,0.00,WUHU216HW,2013-01-11 12:13:00,
2013-01-11 03:18:00,24.5,22.5,29.91,North,0,0.0,4.0,92,0.00,,,0.00,WUHU216HW,2013-01-11 12:18:00,
2013-01-11 03:23:00,24.5,22.5,29.91,North,0,0.2,1.8,92,0.00,,,0.00,WUHU216HW,2013-01-11 12:23:00,
2013-01-11 03:28:00,24.7,22.7,29.91,NNE,23,1.8,2.9,92,0.00,,,0.00,WUHU216HW,2013-01-11 12:28:00,
2013-01-11 03:33:00,24.7,22.7,29.90,NNE,23,1.1,3.4,92,0.00,,,0.00,WUHU216HW,2013-01-11 12:33:00,
2013-01-11 03:38:00,24.7,22.7,29.90,North,0,1.6,3.4,92,0.00,,,0.00,WUHU216HW,2013-01-11 12:38:00,
2013-01-11 03:43:00,24.8,22.9,29.90,NNW,338,2.0,3.1,92,0.00,,,0.00,WUHU216HW,2013-01-11 12:43:00,
2013-01-11 03:48:00,24.8,22.9,29.90,North,0,2.0,3.1,92,0.00,,,0.00,WUHU216HW,2013-01-11 12:48:00,
2013-01-11 03:53:00,24.8,22.9,29.90,North,0,0.9,4.7,92,0.00,,,0.00,WUHU216HW,2013-01-11 12:53:00,
2013-01-11 03:58:00,24.8,22.9,29.90,North,0,0.4,4.7,92,0.00,,,0.00,WUHU216HW,2013-01-11 12:58:00,
2013-01-11 04:04:00,25.0,23.1,29.90,North,0,0.4,2.5,92,0.00,,,0.00,WUHU216HW,2013-01-11 13:04:00,
2013-01-11 04:09:00,25.0,23.1,29.90,North,0,0.7,1.1,92,0.00,,,0.00,WUHU216HW,2013-01-11 13:09:00,
2013-01-11 04:14:00,25.2,23.2,29.90,North,0,2.5,4.3,92,0.00,,,0.00,WUHU216HW,2013-01-11 13:14:00,
2013-01-11 04:19:00,25.2,23.2,29.90,NNW,338,1.1,4.3,92,0.00,,,0.00,WUHU216HW,2013-01-11 13:19:00,
2013-01-11 04:24:00,25.2,23.2,29.89,North,0,0.9,4.0,92,0.00,,,0.00,WUHU216HW,2013-01-11 13:24:00,
2013-01-11 04:29:00,25.2,23.2,29.89,North,0,2.5,4.0,92,0.00,,,0.00,WUHU216HW,2013-01-11 13:29:00,
2013-01-11 04:34:00,25.4,23.4,29.89,North,0,0.7,4.7,92,0.00,,,0.00,WUHU216HW,2013-01-11 13:34:00,
2013-01-11 04:39:00,25.4,23.4,29.89,North,0,3.1,4.9,92,0.00,,,0.00,WUHU216HW,2013-01-11 13:39:00,
2013-01-11 04:44:00,25.6,23.6,29.89,North,0,0.7,4.9,92,0.00,,,0.00,WUHU216HW,2013-01-11 13:44:00,
2013-01-11 04:49:00,25.6,23.6,29.89,North,0,1.8,3.4,92,0.00,,,0.00,WUHU216HW,2013-01-11 13:49:00,
2013-01-11 04:54:00,25.6,23.6,29.89,North,0,1.6,4.7,92,0.00,,,0.00,WUHU216HW,2013-01-11 13:54:00,
2013-01-11 04:59:00,25.6,23.6,29.89,North,0,0.7,4.7,92,0.00,,,0.00,WUHU216HW,2013-01-11 13:59:00,
2013-01-11 05:04:00,25.6,23.6,29.89,NNW,338,2.5,3.1,92,0.00,,,0.00,WUHU216HW,2013-01-11 14:04:00,
2013-01-11 05:09:00,25.7,23.8,29.88,NNW,338,3.1,3.1,92,0.00,,,0.00,WUHU216HW,2013-01-11 14:09:00,
2013-01-11 05:14:00,25.7,23.8,29.88,North,0,2.0,3.1,92,0.00,,,0.00,WUHU216HW,2013-01-11 14:14:00,
2013-01-11 05:19:00,25.7,23.8,29.88,North,0,6.0,6.0,92,0.00,,,0.00,WUHU216HW,2013-01-11 14:19:00,
2013-01-11 05:23:00,25.7,23.8,29.88,North,0,0.4,6.0,92,0.00,,,0.00,WUHU216HW,2013-01-11 14:23:00,
2013-01-11 05:29:00,25.7,23.8,29.87,NNE,23,2.2,5.4,92,0.00,,,0.00,WUHU216HW,2013-01-11 14:29:00,
2013-01-11 05:33:00,25.7,23.8,29.87,North,0,1.8,7.4,92,0.00,,,0.00,WUHU216HW,2013-01-11 14:33:00,
2013-01-11 05:39:00,25.9,24.0,29.87,NNW,338,1.1,7.4,92,0.00,,,0.00,WUHU216HW,2013-01-11 14:39:00,
2013-01-11 05:44:00,25.9,24.0,29.87,NNE,23,1.8,5.1,92,0.00,,,0.00,WUHU216HW,2013-01-11 14:44:00,
2013-01-11 05:48:00,25.9,24.0,29.87,NNW,338,0.4,4.0,92,0.00,,,0.00,WUHU216HW,2013-01-11 14:48:00,
2013-01-11 05:54:00,25.9,24.0,29.87,NNE,23,1.1,4.0,92,0.00,,,0.00,WUHU216HW,2013-01-11 14:54:00,
2013-01-11 05:59:00,25.9,24.0,29.87,North,0,0.4,4.7,92,0.00,,,0.00,WUHU216HW,2013-01-11 14:59:00,
2013-01-11 06:04:00,25.9,24.0,29.87,North,0,2.2,4.7,92,0.00,,,0.00,WUHU216HW,2013-01-11 15:04:00,
2013-01-11 06:09:00,25.9,24.0,29.87,North,0,0.7,3.6,92,0.00,,,0.00,WUHU216HW,2013-01-11 15:09:00,
2013-01-11 06:13:00,25.9,24.0,29.87,North,0,2.2,6.0,92,0.00,,,0.00,WUHU216HW,2013-01-11 15:13:00,
2013-01-11 06:19:00,25.9,24.0,29.87,North,0,1.1,6.0,92,0.00,,,0.00,WUHU216HW,2013-01-11 15:19:00,
2013-01-11 06:24:00,25.9,24.0,29.87,North,0,1.1,5.4,92,0.00,,,0.00,WUHU216HW,2013-01-11 15:24:00,
2013-01-11 06:29:00,26.1,24.1,29.87,North,0,1.6,4.5,92,0.00,,,0.00,WUHU216HW,2013-01-11 15:29:00,
2013-01-11 06:34:00,25.9,24.0,29.87,North,0,2.2,4.5,92,0.00,,,0.00,WUHU216HW,2013-01-11 15:34:00,
2013-01-11 06:39:00,25.9,24.0,29.87,North,0,2.5,6.0,92,0.00,,,0.00,WUHU216HW,2013-01-11 15:39:00,
2013-01-11 06:43:00,26.1,24.1,29.87,NNE,23,1.6,6.0,92,0.00,,,0.00,WUHU216HW,2013-01-11 15:43:00,
2013-01-11 06:48:00,26.1,24.1,29.87,North,0,1.3,5.6,92,0.00,,,0.00,WUHU216HW,2013-01-11 15:48:00,
2013-01-11 06:53:00,26.3,24.3,29.87,NE,45,1.6,5.6,92,0.00,,,0.00,WUHU216HW,2013-01-11 15:53:00,
2013-01-11 06:58:00,26.3,24.3,29.87,North,0,1.3,4.3,92,0.00,,,0.00,WUHU216HW,2013-01-11 15:58:00,
2013-01-11 07:03:00,26.3,24.3,29.87,North,0,0.7,3.4,92,0.00,,,0.00,WUHU216HW,2013-01-11 16:03:00,
2013-01-11 07:08:00,26.5,24.5,29.88,North,0,3.6,4.3,92,0.00,,,0.00,WUHU216HW,2013-01-11 16:08:00,
2013-01-11 07:13:00,26.5,24.5,29.88,North,0,3.1,4.3,92,0.00,,,0.00,WUHU216HW,2013-01-11 16:13:00,
2013-01-11 07:18:00,26.6,24.7,29.88,North,0,4.0,4.7,92,0.00,,,0.00,WUHU216HW,2013-01-11 16:18:00,
2013-01-11 07:23:00,26.6,24.7,29.88,North,0,1.8,4.7,92,0.00,,,0.00,WUHU216HW,2013-01-11 16:23:00,
2013-01-11 07:28:00,26.6,24.7,29.89,NNE,23,1.8,3.6,92,0.00,,,0.00,WUHU216HW,2013-01-11 16:28:00,
2013-01-11 07:33:00,26.6,24.7,29.89,North,0,4.7,6.3,92,0.00,,,0.00,WUHU216HW,2013-01-11 16:33:00,
2013-01-11 07:38:00,26.8,24.9,29.89,North,0,3.4,6.3,92,0.00,,,0.00,WUHU216HW,2013-01-11 16:38:00,
2013-01-11 07:43:00,26.8,24.9,29.89,North,0,3.1,4.3,92,0.00,,,0.00,WUHU216HW,2013-01-11 16:43:00,
2013-01-11 07:48:00,26.8,24.9,29.89,North,0,2.2,4.5,92,0.00,,,0.00,WUHU216HW,2013-01-11 16:48:00,
2013-01-11 07:53:00,26.8,24.9,29.89,North,0,2.9,4.5,92,0.00,,,0.00,WUHU216HW,2013-01-11 16:53:00,
2013-01-11 07:58:00,26.8,24.9,29.89,North,0,4.0,4.0,92,0.00,,,0.00,WUHU216HW,2013-01-11 16:58:00,
2013-01-11 08:03:00,27.0,25.0,29.89,North,0,1.3,4.3,92,0.00,,,0.00,WUHU216HW,2013-01-11 17:03:00,
2013-01-11 08:08:00,27.0,25.0,29.90,North,0,2.2,4.3,92,0.00,,,0.00,WUHU216HW,2013-01-11 17:08:00,
2013-01-11 08:13:00,27.0,25.0,29.90,North,0,1.8,3.8,92,0.00,,,0.00,WUHU216HW,2013-01-11 17:13:00,
2013-01-11 08:18:00,27.0,25.0,29.91,North,0,0.4,3.8,92,0.00,,,0.00,WUHU216HW,2013-01-11 17:18:00,
2013-01-11 08:23:00,27.0,25.0,29.91,North,0,0.4,2.7,92,0.00,,,0.00,WUHU216HW,2013-01-11 17:23:00,
2013-01-11 08:28:00,27.0,24.8,29.91,North,0,1.6,4.0,91,0.00,,,0.00,WUHU216HW,2013-01-11 17:28:00,
2013-01-11 08:33:00,27.0,25.0,29.91,North,0,0.7,4.0,92,0.00,,,0.00,WUHU216HW,2013-01-11 17:33:00,
2013-01-11 08:38:00,27.0,25.0,29.92,North,0,0.7,1.3,92,0.00,,,0.00,WUHU216HW,2013-01-11 17:38:00,
2013-01-11 08:43:00,27.0,25.0,29.92,North,0,1.1,1.3,92,0.00,,,0.00,WUHU216HW,2013-01-11 17:43:00,
2013-01-11 08:48:00,27.0,25.0,29.93,West,270,1.1,1.3,92,0.00,,,0.00,WUHU216HW,2013-01-11 17:48:00,
2013-01-11 08:53:00,27.0,24.8,29.93,WNW,293,1.1,1.1,91,0.00,,,0.00,WUHU216HW,2013-01-11 17:53:00,
2013-01-11 08:59:00,27.0,24.8,29.93,NW,315,0.4,1.3,91,0.00,,,0.00,WUHU216HW,2013-01-11 17:59:00,
2013-01-11 09:04:00,27.0,25.0,29.93,WNW,293,0.4,1.3,92,0.00,,,0.00,WUHU216HW,2013-01-11 18:04:00,
2013-01-11 09:09:00,27.0,24.8,29.94,NW,315,0.0,0.9,91,0.00,,,0.00,WUHU216HW,2013-01-11 18:09:00,
2013-01-11 09:14:00,27.0,25.0,29.94,NW,315,0.9,0.9,92,0.00,,,0.00,WUHU216HW,2013-01-11 18:14:00,
2013-01-11 09:19:00,27.0,25.0,29.94,NNW,338,0.7,1.1,92,0.00,,,0.00,WUHU216HW,2013-01-11 18:19:00,
2013-01-11 09:24:00,27.0,24.8,29.94,North,0,0.2,1.1,91,0.00,,,0.00,WUHU216HW,2013-01-11 18:24:00,
2013-01-11 09:29:00,27.0,24.8,29.94,North,0,0.4,1.1,91,0.00,,,0.00,WUHU216HW,2013-01-11 18:29:00,
2013-01-11 09:34:00,27.0,24.8,29.94,North,0,0.7,1.1,91,0.00,,,0.00,WUHU216HW,2013-01-11 18:34:00,
2013-01-11 09:39:00,27.0,24.8,29.94,NNE,23,2.0,2.0,91,0.00,,,0.00,WUHU216HW,2013-01-11 18:39:00,
2013-01-11 09:44:00,27.0,24.8,29.95,North,0,0.4,2.0,91,0.00,,,0.00,WUHU216HW,2013-01-11 18:44:00,
2013-01-11 09:49:00,27.0,24.8,29.95,North,0,0.4,1.8,91,0.00,,,0.00,WUHU216HW,2013-01-11 18:49:00,
2013-01-11 09:54:00,27.0,25.0,29.95,North,0,0.4,2.0,92,0.00,,,0.00,WUHU216HW,2013-01-11 18:54:00,
2013-01-11 09:59:00,27.0,25.2,29.96,North,0,0.2,2.0,93,0.00,,,0.00,WUHU216HW,2013-01-11 18:59:00,
2013-01-11 10:04:00,27.0,25.0,29.96,North,0,0.4,1.8,92,0.00,,,0.00,WUHU216HW,2013-01-11 19:04:00,
2013-01-11 10:09:00,27.0,25.0,29.97,North,0,0.2,1.3,92,0.00,,,0.00,WUHU216HW,2013-01-11 19:09:00,
2013-01-11 10:14:00,27.0,25.0,29.96,North,0,0.7,2.0,92,0.00,,,0.00,WUHU216HW,2013-01-11 19:14:00,
2013-01-11 10:19:00,27.0,25.0,29.97,North,0,0.4,2.5,92,0.00,,,0.00,WUHU216HW,2013-01-11 19:19:00,
2013-01-11 10:24:00,27.2,25.4,29.97,North,0,0.4,2.5,93,0.00,,,0.00,WUHU216HW,2013-01-11 19:24:00,
2013-01-11 10:29:00,27.4,25.6,29.98,NNW,338,0.7,2.5,93,0.00,,,0.00,WUHU216HW,2013-01-11 19:29:00,
2013-01-11 10:34:00,27.4,25.6,29.98,North,0,0.0,2.5,93,0.00,,,0.00,WUHU216HW,2013-01-11 19:34:00,
2013-01-11 10:39:00,27.4,25.4,29.98,North,0,0.0,1.8,92,0.00,,,0.00,WUHU216HW,2013-01-11 19:39:00,
2013-01-11 10:44:00,27.4,25.4,29.99,NE,45,0.2,0.4,92,0.00,,,0.00,WUHU216HW,2013-01-11 19:44:00,
2013-01-11 10:49:00,27.5,25.6,29.99,NE,45,0.2,0.4,92,0.00,,,0.00,WUHU216HW,2013-01-11 19:49:00,
2013-01-11 10:54:00,27.5,25.6,29.99,NE,45,0.0,0.2,92,0.00,,,0.00,WUHU216HW,2013-01-11 19:54:00,
2013-01-11 10:59:00,27.7,25.8,29.99,NE,45,0.0,0.0,92,0.00,,,0.00,WUHU216HW,2013-01-11 19:59:00,
2013-01-11 11:04:00,27.7,25.8,30.00,NE,45,0.0,0.0,92,0.00,,,0.00,WUHU216HW,2013-01-11 20:04:00,
2013-01-11 11:09:00,27.9,25.9,30.00,NE,45,0.0,0.0,92,0.00,,,0.00,WUHU216HW,2013-01-11 20:09:00,
2013-01-11 11:14:00,28.1,26.1,30.00,NE,45,0.0,0.0,92,0.00,,,0.00,WUHU216HW,2013-01-11 20:14:00,
2013-01-11 11:19:00,28.1,26.1,30.01,NE,45,0.0,0.4,92,0.00,,,0.00,WUHU216HW,2013-01-11 20:19:00,
2013-01-11 11:24:00,28.3,26.3,30.01,NE,45,0.2,0.4,92,0.00,,,0.00,WUHU216HW,2013-01-11 20:24:00,
2013-01-11 11:29:00,28.3,26.3,30.01,NE,45,0.0,0.4,92,0.00,,,0.00,WUHU216HW,2013-01-11 20:29:00,
2013-01-11 11:34:00,28.3,26.3,30.01,NE,45,0.0,0.4,92,0.00,,,0.00,WUHU216HW,2013-01-11 20:34:00,
2013-01-11 11:39:00,28.4,26.5,30.01,NE,45,0.0,0.0,92,0.00,,,0.00,WUHU216HW,2013-01-11 20:39:00,
2013-01-11 11:44:00,28.3,26.3,30.01,NE,45,0.0,0.0,92,0.00,,,0.00,WUHU216HW,2013-01-11 20:44:00,
2013-01-11 11:49:00,28.4,26.5,30.01,NE,45,0.0,0.0,92,0.00,,,0.00,WUHU216HW,2013-01-11 20:49:00,
2013-01-11 11:54:00,28.4,26.5,30.02,NE,45,0.0,0.0,92,0.00,,,0.00,WUHU216HW,2013-01-11 20:54:00,
2013-01-11 11:59:00,28.6,26.7,30.02,NE,45,0.0,0.0,92,0.00,,,0.00,WUHU216HW,2013-01-11 20:59:00,
2013-01-11 12:04:00,28.8,26.8,30.02,NE,45,0.0,0.0,92,0.00,,,0.00,WUHU216HW,2013-01-11 21:04:00,
2013-01-11 12:09:00,28.8,26.8,30.02,NE,45,0.0,0.0,92,0.00,,,0.00,WUHU216HW,2013-01-11 21:09:00,
2013-01-11 12:14:00,29.0,27.0,30.03,NE,45,0.0,0.0,92,0.00,,,0.00,WUHU216HW,2013-01-11 21:14:00,
2013-01-11 12:19:00,29.2,27.2,30.03,NE,45,0.0,0.0,92,0.00,,,0.00,WUHU216HW,2013-01-11 21:19:00,
2013-01-11 12:24:00,29.2,27.2,30.03,NE,45,0.0,0.0,92,0.00,,,0.00,WUHU216HW,2013-01-11 21:24:00,
2013-01-11 12:29:00,29.2,27.2,30.03,NE,45,0.0,0.0,92,0.00,,,0.00,WUHU216HW,2013-01-11 21:29:00,
2013-01-11 12:34:00,29.2,27.2,30.03,NE,45,0.0,0.0,92,0.00,,,0.00,WUHU216HW,2013-01-11 21:34:00,
2013-01-11 12:39:00,29.2,27.2,30.03,North,0,0.0,0.4,92,0.00,,,0.00,WUHU216HW,2013-01-11 21:39:00,
2013-01-11 12:44:00,29.0,27.0,30.04,North,0,0.0,0.4,92,0.00,,,0.00,WUHU216HW,2013-01-11 21:44:00,
2013-01-11 12:49:00,29.0,27.0,30.04,North,0,0.0,0.0,92,0.00,,,0.00,WUHU216HW,2013-01-11 21:49:00,
2013-01-11 12:54:00,29.2,27.2,30.04,North,0,0.0,0.0,92,0.00,,,0.00,WUHU216HW,2013-01-11 21:54:00,
2013-01-11 12:59:00,29.2,27.2,30.04,North,0,0.0,0.0,92,0.00,,,0.00,WUHU216HW,2013-01-11 21:59:00,
2013-01-11 13:04:00,29.3,27.4,30.04,North,0,0.0,0.0,92,0.00,,,0.00,WUHU216HW,2013-01-11 22:04:00,
2013-01-11 13:09:00,29.3,27.4,30.04,North,0,0.0,0.0,92,0.00,,,0.00,WUHU216HW,2013-01-11 22:09:00,
2013-01-11 13:14:00,29.3,27.4,30.04,West,270,0.4,0.4,92,0.00,,,0.00,WUHU216HW,2013-01-11 22:14:00,
2013-01-11 13:19:00,29.3,27.4,30.04,WNW,293,0.4,0.4,92,0.00,,,0.00,WUHU216HW,2013-01-11 22:19:00,
2013-01-11 13:24:00,29.2,27.2,30.04,West,270,0.0,0.4,92,0.00,,,0.00,WUHU216HW,2013-01-11 22:24:00,
2013-01-11 13:29:00,29.2,27.2,30.04,WNW,293,0.0,0.4,92,0.00,,,0.00,WUHU216HW,2013-01-11 22:29:00,
2013-01-11 13:34:00,29.2,27.2,30.04,WNW,293,0.0,0.4,92,0.00,,,0.00,WUHU216HW,2013-01-11 22:34:00,
2013-01-11 13:39:00,29.2,27.2,30.04,NW,315,0.9,0.9,92,0.00,,,0.00,WUHU216HW,2013-01-11 22:39:00,
2013-01-11 13:44:00,29.2,27.2,30.04,NW,315,0.7,0.9,92,0.00,,,0.00,WUHU216HW,2013-01-11 22:44:00,
2013-01-11 13:49:00,29.2,27.2,30.04,WNW,293,0.0,0.7,92,0.00,,,0.00,WUHU216HW,2013-01-11 22:49:00,
2013-01-11 13:54:00,29.2,27.2,30.05,WNW,293,0.0,0.7,92,0.00,,,0.00,WUHU216HW,2013-01-11 22:54:00,
2013-01-11 13:59:00,29.3,27.4,30.05,NW,315,0.4,0.4,92,0.00,,,0.00,WUHU216HW,2013-01-11 22:59:00,
2013-01-11 14:04:00,29.3,27.4,30.05,NW,315,0.0,0.4,92,0.00,,,0.00,WUHU216HW,2013-01-11 23:04:00,
2013-01-11 14:09:00,29.5,27.6,30.05,NW,315,0.0,0.4,92,0.00,,,0.00,WUHU216HW,2013-01-11 23:09:00,
2013-01-11 14:14:00,29.3,27.4,30.06,NW,315,0.4,0.4,92,0.00,,,0.00,WUHU216HW,2013-01-11 23:14:00,
2013-01-11 14:19:00,29.3,27.4,30.06,NW,315,0.0,0.4,92,0.00,,,0.00,WUHU216HW,2013-01-11 23:19:00,
2013-01-11 14:24:00,29.3,27.4,30.06,NW,315,0.0,0.4,92,0.00,,,0.00,WUHU216HW,2013-01-11 23:24:00,
2013-01-11 14:29:00,29.2,27.2,30.06,NW,315,0.2,0.4,92,0.00,,,0.00,WUHU216HW,2013-01-11 23:29:00,
2013-01-11 14:34:00,29.3,27.4,30.06,NW,315,0.2,0.2,92,0.00,,,0.00,WUHU216HW,2013-01-11 23:34:00,
2013-01-11 14:39:00,29.3,27.4,30.06,NW,315,0.0,0.2,92,0.00,,,0.00,WUHU216HW,2013-01-11 23:39:00,
2013-01-11 14:44:00,29.3,27.4,30.06,NW,315,0.0,0.0,92,0.00,,,0.00,WUHU216HW,2013-01-11 23:44:00,
2013-01-11 14:49:00,29.2,27.2,30.07,NW,315,0.0,0.0,92,0.00,,,0.00,WUHU216HW,2013-01-11 23:49:00,
2013-01-11 14:54:00,29.2,27.2,30.07,NW,315,0.0,0.0,92,0.00,,,0.00,WUHU216HW,2013-01-11 23:54:00,
2013-01-11 14:59:00,29.3,27.4,30.07,NW,315,0.0,0.0,92,0.00,,,0.00,WUHU216HW,2013-01-11 23:59:00,
2013-01-11 15:04:00,29.3,27.4,30.07,NW,315,0.0,0.2,92,0.00,,,0.00,WUHU216HW,2013-01-12 00:04:00,
2013-01-11 15:09:00,29.2,27.2,30.07,NW,315,0.0,0.2,92,0.00,,,0.00,WUHU216HW,2013-01-12 00:09:00,
2013-01-11 15:14:00,29.3,27.4,30.08,NW,315,0.0,0.2,92,0.00,,,0.00,WUHU216HW,2013-01-12 00:14:00,
2013-01-11 15:19:00,29.3,27.4,30.08,NW,315,0.2,0.4,92,0.00,,,0.00,WUHU216HW,2013-01-12 00:19:00,
2013-01-11 15:24:00,29.3,27.4,30.08,NW,315,0.0,0.4,92,0.00,,,0.00,WUHU216HW,2013-01-12 00:24:00,
2013-01-11 15:29:00,29.5,27.6,30.08,NNW,338,0.7,1.1,92,0.00,,,0.00,WUHU216HW,2013-01-12 00:29:00,
2013-01-11 15:34:00,29.5,27.6,30.07,North,0,1.1,1.3,92,0.00,,,0.00,WUHU216HW,2013-01-12 00:34:00,
2013-01-11 15:39:00,29.5,27.6,30.08,ESE,113,1.3,2.0,92,0.00,,,0.00,WUHU216HW,2013-01-12 00:39:00,
2013-01-11 15:44:00,29.2,27.2,30.08,ESE,113,1.1,2.0,92,0.00,,,0.00,WUHU216HW,2013-01-12 00:44:00,
2013-01-11 15:49:00,29.0,27.0,30.08,ESE,113,0.4,1.8,92,0.00,,,0.00,WUHU216HW,2013-01-12 00:49:00,
2013-01-11 15:54:00,28.8,26.8,30.08,NE,45,1.6,1.8,92,0.00,,,0.00,WUHU216HW,2013-01-12 00:54:00,
2013-01-11 15:59:00,28.8,26.8,30.08,North,0,0.9,1.8,92,0.00,,,0.00,WUHU216HW,2013-01-12 00:59:00,
2013-01-11 16:04:00,28.6,26.7,30.08,ENE,68,1.1,1.8,92,0.00,,,0.00,WUHU216HW,2013-01-12 01:04:00,
2013-01-11 16:09:00,28.4,26.5,30.08,East,90,1.1,2.0,92,0.00,,,0.00,WUHU216HW,2013-01-12 01:09:00,
2013-01-11 16:14:00,28.4,26.5,30.08,ENE,68,0.4,2.0,92,0.00,,,0.00,WUHU216HW,2013-01-12 01:14:00,
2013-01-11 16:19:00,28.4,26.5,30.08,North,0,1.1,1.1,92,0.00,,,0.00,WUHU216HW,2013-01-12 01:19:00,
2013-01-11 16:24:00,28.3,26.3,30.07,ENE,68,0.0,1.3,92,0.00,,,0.00,WUHU216HW,2013-01-12 01:24:00,
2013-01-11 16:29:00,28.1,26.1,30.07,NE,45,1.1,1.3,92,0.00,,,0.00,WUHU216HW,2013-01-12 01:29:00,
2013-01-11 16:34:00,27.7,25.8,30.07,North,0,0.9,1.1,92,0.00,,,0.00,WUHU216HW,2013-01-12 01:34:00,
2013-01-11 16:39:00,27.4,25.1,30.06,ESE,113,0.4,0.9,91,0.00,,,0.00,WUHU216HW,2013-01-12 01:39:00,
2013-01-11 16:44:00,26.8,24.6,30.07,North,0,0.2,0.9,91,0.00,,,0.00,WUHU216HW,2013-01-12 01:44:00,
2013-01-11 16:49:00,26.3,24.0,30.07,East,90,0.4,0.9,91,0.00,,,0.00,WUHU216HW,2013-01-12 01:49:00,
2013-01-11 16:54:00,25.9,23.7,30.07,ENE,68,0.4,0.9,91,0.00,,,0.00,WUHU216HW,2013-01-12 01:54:00,
2013-01-11 16:59:00,25.6,23.3,30.07,NE,45,0.0,0.7,91,0.00,,,0.00,WUHU216HW,2013-01-12 01:59:00,
2013-01-11 17:04:00,25.2,23.0,30.08,NNE,23,0.0,0.4,91,0.00,,,0.00,WUHU216HW,2013-01-12 02:04:00,
2013-01-11 17:09:00,24.8,22.3,30.08,NNE,23,0.0,0.0,90,0.00,,,0.00,WUHU216HW,2013-01-12 02:09:00,
2013-01-11 17:14:00,24.5,22.0,30.08,NNE,23,0.0,0.0,90,0.00,,,0.00,WUHU216HW,2013-01-12 02:14:00,
2013-01-11 17:19:00,24.1,21.6,30.08,NNE,23,0.0,0.0,90,0.00,,,0.00,WUHU216HW,2013-01-12 02:19:00,
2013-01-11 17:24:00,23.6,21.1,30.09,NNE,23,0.0,0.0,90,0.00,,,0.00,WUHU216HW,2013-01-12 02:24:00,
2013-01-11 17:29:00,23.2,20.7,30.08,NNE,23,0.0,0.0,90,0.00,,,0.00,WUHU216HW,2013-01-12 02:29:00,
2013-01-11 17:34:00,23.0,20.5,30.09,NNE,23,0.0,0.7,90,0.00,,,0.00,WUHU216HW,2013-01-12 02:34:00,
2013-01-11 17:39:00,22.7,20.2,30.09,NNE,23,0.0,0.7,90,0.00,,,0.00,WUHU216HW,2013-01-12 02:39:00,
2013-01-11 17:44:00,22.7,20.4,30.09,NNE,23,0.4,0.4,91,0.00,,,0.00,WUHU216HW,2013-01-12 02:44:00,
2013-01-11 17:49:00,22.7,20.4,30.10,ESE,113,0.0,0.4,91,0.00,,,0.00,WUHU216HW,2013-01-12 02:49:00,
2013-01-11 17:54:00,22.9,20.6,30.10,SE,135,0.0,0.4,91,0.00,,,0.00,WUHU216HW,2013-01-12 02:54:00,
2013-01-11 17:59:00,22.9,20.6,30.10,SE,135,0.0,0.4,91,0.00,,,0.00,WUHU216HW,2013-01-12 02:59:00,
2013-01-11 18:04:00,23.0,20.8,30.10,SE,135,0.0,0.4,91,0.00,,,0.00,WUHU216HW,2013-01-12 03:04:00,
2013-01-11 18:09:00,23.2,21.0,30.10,SE,135,0.0,0.2,91,0.00,,,0.00,WUHU216HW,2013-01-12 03:09:00,
2013-01-11 18:14:00,23.4,21.2,30.10,North,0,0.4,0.4,91,0.00,,,0.00,WUHU216HW,2013-01-12 03:14:00,
2013-01-11 18:19:00,23.4,21.2,30.10,North,0,0.0,0.4,91,0.00,,,0.00,WUHU216HW,2013-01-12 03:19:00,
2013-01-11 18:24:00,23.6,21.3,30.10,North,0,0.2,0.2,91,0.00,,,0.00,WUHU216HW,2013-01-12 03:24:00,
2013-01-11 18:29:00,23.8,21.5,30.10,North,0,0.4,0.4,91,0.00,,,0.00,WUHU216HW,2013-01-12 03:29:00,
2013-01-11 18:34:00,23.8,21.5,30.10,North,0,0.0,0.4,91,0.00,,,0.00,WUHU216HW,2013-01-12 03:34:00,
2013-01-11 18:39:00,23.8,21.5,30.10,NNW,338,0.0,0.4,91,0.00,,,0.00,WUHU216HW,2013-01-12 03:39:00,
2013-01-11 18:44:00,23.8,21.5,30.10,North,0,0.0,0.2,91,0.00,,,0.00,WUHU216HW,2013-01-12 03:44:00,
2013-01-11 18:49:00,23.8,21.5,30.10,North,0,0.0,0.2,91,0.00,,,0.00,WUHU216HW,2013-01-12 03:49:00,
2013-01-11 18:54:00,23.6,21.3,30.10,North,0,0.0,1.1,91,0.00,,,0.00,WUHU216HW,2013-01-12 03:54:00,
2013-01-11 18:59:00,23.8,21.5,30.10,North,0,0.2,1.1,91,0.00,,,0.00,WUHU216HW,2013-01-12 03:59:00,
2013-01-11 19:04:00,23.9,22.0,30.10,North,0,0.2,1.1,92,0.00,,,0.00,WUHU216HW,2013-01-12 04:04:00,
2013-01-11 19:09:00,24.1,22.2,30.10,North,0,0.4,1.3,92,0.00,,,0.00,WUHU216HW,2013-01-12 04:09:00,
2013-01-11 19:14:00,24.3,22.3,30.10,North,0,0.0,1.3,92,0.00,,,0.00,WUHU216HW,2013-01-12 04:14:00,
2013-01-11 19:19:00,24.3,22.3,30.10,NNW,338,0.0,0.4,92,0.00,,,0.00,WUHU216HW,2013-01-12 04:19:00,
2013-01-11 19:24:00,24.3,22.3,30.10,NW,315,0.0,0.0,92,0.00,,,0.00,WUHU216HW,2013-01-12 04:24:00,
2013-01-11 19:29:00,24.3,22.3,30.11,NW,315,0.0,0.0,92,0.00,,,0.00,WUHU216HW,2013-01-12 04:29:00,
2013-01-11 19:34:00,24.1,22.2,30.11,NW,315,0.0,0.0,92,0.00,,,0.00,WUHU216HW,2013-01-12 04:34:00,
2013-01-11 19:39:00,24.1,21.9,30.11,NW,315,0.0,0.0,91,0.00,,,0.00,WUHU216HW,2013-01-12 04:39:00,
2013-01-11 19:44:00,24.1,21.9,30.11,NNE,23,0.4,0.4,91,0.00,,,0.00,WUHU216HW,2013-01-12 04:44:00,
2013-01-11 19:49:00,24.1,21.9,30.11,ENE,68,0.0,0.4,91,0.00,,,0.00,WUHU216HW,2013-01-12 04:49:00,
2013-01-11 19:54:00,24.1,21.9,30.11,ENE,68,0.0,0.2,91,0.00,,,0.00,WUHU216HW,2013-01-12 04:54:00,
2013-01-11 19:59:00,24.1,21.9,30.11,ENE,68,0.0,0.0,91,0.00,,,0.00,WUHU216HW,2013-01-12 04:59:00,
2013-01-11 20:00:00,24.1,21.9,30.11,ENE,68,0.0,0.0,91,0.00,,,0.00,WUHU216HW,2013-01-12 05:00:00,
2013-01-11 20:01:00,24.1,21.9,30.10,ENE,68,0.0,0.0,91,0.00,,,0.00,WUHU216HW,2013-01-12 05:01:00,
2013-01-11 20:02:00,24.1,21.9,30.10,ENE,68,0.2,0.2,91,0.00,,,0.00,WUHU216HW,2013-01-12 05:02:00,
2013-01-11 20:07:00,24.1,21.9,30.10,ENE,68,0.4,0.7,91,0.00,,,0.00,WUHU216HW,2013-01-12 05:07:00,
2013-01-11 20:12:00,24.1,21.9,30.10,NE,45,0.7,0.7,91,0.00,,,0.00,WUHU216HW,2013-01-12 05:12:00,
2013-01-11 20:17:00,24.1,21.9,30.11,WNW,293,0.0,1.3,91,0.00,,,0.00,WUHU216HW,2013-01-12 05:17:00,
2013-01-11 20:22:00,24.3,22.3,30.11,SW,225,1.1,1.3,92,0.00,,,0.00,WUHU216HW,2013-01-12 05:22:00,
2013-01-11 20:27:00,24.3,22.3,30.11,WNW,293,0.0,1.1,92,0.00,,,0.00,WUHU216HW,2013-01-12 05:27:00,
2013-01-11 20:32:00,24.3,22.1,30.11,NW,315,0.4,0.7,91,0.00,,,0.00,WUHU216HW,2013-01-12 05:32:00,
2013-01-11 20:37:00,24.3,22.3,30.11,NW,315,0.0,0.4,92,0.00,,,0.00,WUHU216HW,2013-01-12 05:37:00,
2013-01-11 20:42:00,24.3,22.1,30.11,NW,315,0.0,0.2,91,0.00,,,0.00,WUHU216HW,2013-01-12 05:42:00,
2013-01-11 20:47:00,24.3,22.3,30.11,NW,315,0.4,0.4,92,0.00,,,0.00,WUHU216HW,2013-01-12 05:47:00,
2013-01-11 20:52:00,24.3,22.3,30.11,NNE,23,0.4,0.7,92,0.00,,,0.00,WUHU216HW,2013-01-12 05:52:00,
2013-01-11 20:57:00,24.3,22.3,30.11,NNE,23,0.0,0.7,92,0.00,,,0.00,WUHU216HW,2013-01-12 05:57:00,
2013-01-11 21:02:00,24.3,22.1,30.11,NNW,338,0.0,0.4,91,0.00,,,0.00,WUHU216HW,2013-01-12 06:02:00,
2013-01-11 21:07:00,24.3,22.3,30.11,North,0,0.0,0.2,92,0.00,,,0.00,WUHU216HW,2013-01-12 06:07:00,
2013-01-11 21:12:00,24.3,22.3,30.11,North,0,0.0,0.2,92,0.00,,,0.00,WUHU216HW,2013-01-12 06:12:00,
2013-01-11 21:17:00,24.3,22.3,30.11,WNW,293,0.0,0.0,92,0.00,,,0.00,WUHU216HW,2013-01-12 06:17:00,
2013-01-11 21:22:00,24.5,22.5,30.11,WNW,293,0.0,0.0,92,0.00,,,0.00,WUHU216HW,2013-01-12 06:22:00,
2013-01-11 21:27:00,24.5,22.5,30.11,WNW,293,0.0,0.4,92,0.00,,,0.00,WUHU216HW,2013-01-12 06:27:00,
2013-01-11 21:32:00,24.5,22.5,30.11,WNW,293,0.0,0.4,92,0.00,,,0.00,WUHU216HW,2013-01-12 06:32:00,
2013-01-11 21:37:00,24.3,22.3,30.11,WNW,293,0.0,0.0,92,0.00,,,0.00,WUHU216HW,2013-01-12 06:37:00,
2013-01-11 21:42:00,24.3,22.3,30.11,WNW,293,0.0,0.0,92,0.00,,,0.00,WUHU216HW,2013-01-12 06:42:00,
2013-01-11 21:47:00,24.3,22.3,30.12,WNW,293,0.0,0.0,92,0.00,,,0.00,WUHU216HW,2013-01-12 06:47:00,
2013-01-11 21:52:00,24.1,21.9,30.12,WNW,293,0.0,0.0,91,0.00,,,0.00,WUHU216HW,2013-01-12 06:52:00,
2013-01-11 21:57:00,24.1,21.9,30.12,WNW,293,0.0,0.0,91,0.00,,,0.00,WUHU216HW,2013-01-12 06:57:00,
2013-01-11 22:02:00,24.1,22.2,30.12,WNW,293,0.0,0.0,92,0.00,,,0.00,WUHU216HW,2013-01-12 07:02:00,
2013-01-11 22:07:00,24.1,22.2,30.12,WNW,293,0.0,0.0,92,0.00,,,0.00,WUHU216HW,2013-01-12 07:07:00,
2013-01-11 22:12:00,24.1,22.2,30.11,WNW,293,0.0,0.0,92,0.00,,,0.00,WUHU216HW,2013-01-12 07:12:00,
2013-01-11 22:17:00,24.1,21.9,30.11,WNW,293,0.0,0.0,91,0.00,,,0.00,WUHU216HW,2013-01-12 07:17:00,
2013-01-11 22:22:00,24.1,22.2,30.11,WNW,293,0.0,0.0,92,0.00,,,0.00,WUHU216HW,2013-01-12 07:22:00,
2013-01-11 22:27:00,24.1,21.9,30.11,NNE,23,0.0,0.4,91,0.00,,,0.00,WUHU216HW,2013-01-12 07:27:00,
2013-01-11 22:32:00,23.9,21.7,30.11,ENE,68,0.0,0.4,91,0.00,,,0.00,WUHU216HW,2013-01-12 07:32:00,
2013-01-11 22:37:00,23.8,21.5,30.11,SE,135,0.0,0.2,91,0.00,,,0.00,WUHU216HW,2013-01-12 07:37:00,
2013-01-11 22:42:00,23.8,21.5,30.10,SE,135,0.4,0.7,91,0.00,,,0.00,WUHU216HW,2013-01-12 07:42:00,
2013-01-11 22:47:00,23.6,21.3,30.10,SE,135,0.4,0.7,91,0.00,,,0.00,WUHU216HW,2013-01-12 07:47:00,
2013-01-11 22:52:00,23.4,21.2,30.10,SE,135,0.0,0.4,91,0.00,,,0.00,WUHU216HW,2013-01-12 07:52:00,
2013-01-11 22:57:00,23.4,21.2,30.09,SE,135,0.2,0.4,91,0.00,,,0.00,WUHU216HW,2013-01-12 07:57:00,
2013-01-11 23:02:00,23.4,21.2,30.10,SE,135,0.0,0.7,91,0.00,,,0.00,WUHU216HW,2013-01-12 08:02:00,
2013-01-11 23:07:00,23.4,21.4,30.09,SE,135,0.2,0.7,92,0.00,,,0.00,WUHU216HW,2013-01-12 08:07:00,
2013-01-11 23:12:00,23.4,21.4,30.09,SE,135,0.0,0.4,92,0.00,,,0.00,WUHU216HW,2013-01-12 08:12:00,
2013-01-11 23:17:00,23.6,21.6,30.09,SE,135,0.0,0.0,92,0.00,,,0.00,WUHU216HW,2013-01-12 08:17:00,
2013-01-11 23:22:00,23.6,21.6,30.09,SE,135,0.0,0.0,92,0.00,,,0.00,WUHU216HW,2013-01-12 08:22:00,
2013-01-11 23:27:00,23.8,21.8,30.09,SE,135,0.0,0.0,92,0.00,,,0.00,WUHU216HW,2013-01-12 08:27:00,
2013-01-11 23:32:00,23.8,21.8,30.09,North,0,0.0,0.0,92,0.00,,,0.00,WUHU216HW,2013-01-12 08:32:00,
2013-01-11 23:37:00,23.8,21.8,30.09,NNW,338,0.2,0.2,92,0.00,,,0.00,WUHU216HW,2013-01-12 08:37:00,
2013-01-11 23:42:00,23.8,21.8,30.09,NNW,338,0.0,0.2,92,0.00,,,0.00,WUHU216HW,2013-01-12 08:42:00,
2013-01-11 23:47:00,23.9,22.0,30.08,NNE,23,0.0,0.4,92,0.00,,,0.00,WUHU216HW,2013-01-12 08:47:00,
2013-01-11 23:52:00,23.9,22.0,30.08,North,0,0.0,0.4,92,0.00,,,0.00,WUHU216HW,2013-01-12 08:52:00,
2013-01-11 23:57:00,24.1,22.2,30.07,NNE,23,0.4,0.4,92,0.00,,,0.00,WUHU216HW,2013-01-12 08:57:00,